Location: Orange Harbor Mobile Home Park
(26.6923°N, 81.7937°W)
Time: 06:48:42
(UTC+00:00)

Cosmos 2333 Rocket - Pass Details

Date: 19 September 2020
Orbit: 839 x 862 km, 70.8° (Epoch: 29 October)

Event Time Altitude Azimuth Distance (km) Brightness Sun altitude
Rises 10:02:21 0° 171° (S) 3,416 5.4 -16.9°
Reaches altitude 10° 10:05:07 10° 159° (SSE) 2,485 4.8 -16.3°
Maximum altitude 10:09:54 28° 102° (ESE) 1,561 4.3 -15.2°
Drops below altitude 10° 10:14:42 10° 45° (NE) 2,499 5.5 -14.2°
Sets 10:17:28 0° 35° (NE) 3,438 6.1 -13.5°
